Year,Month,Day,Hour,Minute,Value (Times are PST for temperature in C)
2016,06,02,02,33,12.80
2016,06,02,02,34,12.80
2016,06,02,02,35,12.80
2016,06,02,02,36,12.70
2016,06,02,02,37,12.70
2016,06,02,02,38,12.70
2016,06,02,02,39,12.70
2016,06,02,02,40,12.70
2016,06,02,02,41,12.70
2016,06,02,02,42,12.70
2016,06,02,02,43,12.70
2016,06,02,02,44,12.70
2016,06,02,02,45,12.70
2016,06,02,02,46,12.70
2016,06,02,02,47,12.70
2016,06,02,02,48,12.70
2016,06,02,02,49,12.70
2016,06,02,02,50,12.70
2016,06,02,02,51,12.70
2016,06,02,02,52,12.70
2016,06,02,02,53,12.70
2016,06,02,02,54,12.70
2016,06,02,02,55,12.70
2016,06,02,02,56,12.70
2016,06,02,02,57,12.70
2016,06,02,02,58,12.70
2016,06,02,02,59,12.70
2016,06,02,03,00,12.70
2016,06,02,03,01,12.70
2016,06,02,03,02,12.70
2016,06,02,03,03,12.70
2016,06,02,03,04,12.70
2016,06,02,03,05,12.70
2016,06,02,03,06,12.70
2016,06,02,03,07,12.70
2016,06,02,03,08,12.70
2016,06,02,03,09,12.70
2016,06,02,03,10,12.70
2016,06,02,03,11,12.70
2016,06,02,03,12,12.60
2016,06,02,03,13,12.60
2016,06,02,03,14,12.60
2016,06,02,03,15,12.60
2016,06,02,03,16,12.60
2016,06,02,03,17,12.50
2016,06,02,03,18,12.50
2016,06,02,03,19,12.50
2016,06,02,03,20,12.40
2016,06,02,03,21,12.40
2016,06,02,03,22,12.40
2016,06,02,03,23,12.40
2016,06,02,03,24,12.30
2016,06,02,03,25,12.30
2016,06,02,03,26,12.30
2016,06,02,03,27,12.30
2016,06,02,03,28,12.30
2016,06,02,03,29,12.30
2016,06,02,03,30,12.30
2016,06,02,03,31,12.30
2016,06,02,03,32,12.30
2016,06,02,03,33,12.20
2016,06,02,03,34,12.20
2016,06,02,03,35,12.20
2016,06,02,03,36,12.20
2016,06,02,03,37,12.20
2016,06,02,03,38,12.20
2016,06,02,03,39,12.20
2016,06,02,03,40,12.20
2016,06,02,03,41,12.20
2016,06,02,03,42,12.20
2016,06,02,03,43,12.20
2016,06,02,03,44,12.20
2016,06,02,03,45,12.20
2016,06,02,03,46,12.20
2016,06,02,03,47,12.10
2016,06,02,03,48,12.10
2016,06,02,03,49,12.10
2016,06,02,03,50,12.10
2016,06,02,03,51,12.10
2016,06,02,03,52,12.10
2016,06,02,03,53,12.10
2016,06,02,03,54,12.10
2016,06,02,03,55,12.10
2016,06,02,03,56,12.10
2016,06,02,03,57,12.10
2016,06,02,03,58,12.10
2016,06,02,03,59,12.00
2016,06,02,04,00,12.00
2016,06,02,04,01,12.00
2016,06,02,04,02,12.00
2016,06,02,04,03,12.00
2016,06,02,04,04,12.00
2016,06,02,04,05,12.00
2016,06,02,04,06,11.90
2016,06,02,04,07,11.90
2016,06,02,04,08,11.90
2016,06,02,04,09,11.90
2016,06,02,04,10,11.90
2016,06,02,04,11,11.90
2016,06,02,04,12,11.90
2016,06,02,04,13,11.90
2016,06,02,04,14,11.90
2016,06,02,04,15,11.80
2016,06,02,04,16,11.80
2016,06,02,04,17,11.80
2016,06,02,04,18,11.80
2016,06,02,04,19,11.80
2016,06,02,04,20,11.80
2016,06,02,04,21,11.80
2016,06,02,04,22,11.80
2016,06,02,04,23,11.80
2016,06,02,04,24,11.70
2016,06,02,04,25,11.70
2016,06,02,04,26,11.70
2016,06,02,04,27,11.70
2016,06,02,04,28,11.70
2016,06,02,04,29,11.70
2016,06,02,04,30,11.70
2016,06,02,04,31,11.70
2016,06,02,04,32,11.70
2016,06,02,04,33,11.70
2016,06,02,04,34,11.70
2016,06,02,04,35,11.70
2016,06,02,04,36,11.70
2016,06,02,04,37,11.70
2016,06,02,04,38,11.70
2016,06,02,04,39,11.70
2016,06,02,04,40,11.60
2016,06,02,04,41,11.60
2016,06,02,04,42,11.60
2016,06,02,04,43,11.60
2016,06,02,04,44,11.60
2016,06,02,04,45,11.60
2016,06,02,04,46,11.60
2016,06,02,04,47,11.60
2016,06,02,04,48,11.60
2016,06,02,04,49,11.60
2016,06,02,04,50,11.60
2016,06,02,04,51,11.60
2016,06,02,04,52,11.60
2016,06,02,04,53,11.60
2016,06,02,04,54,11.60
2016,06,02,04,55,11.50
2016,06,02,04,56,11.50
2016,06,02,04,57,11.50
2016,06,02,04,58,11.50
2016,06,02,04,59,11.50
2016,06,02,05,00,11.50
2016,06,02,05,01,11.50
2016,06,02,05,02,11.50
2016,06,02,05,03,11.50
2016,06,02,05,04,11.50
2016,06,02,05,05,11.50
2016,06,02,05,06,11.50
2016,06,02,05,07,11.50
2016,06,02,05,08,11.50
2016,06,02,05,09,11.40
2016,06,02,05,10,11.40
2016,06,02,05,11,11.40
2016,06,02,05,12,11.40
2016,06,02,05,13,11.40
2016,06,02,05,14,11.40
2016,06,02,05,15,11.40
2016,06,02,05,16,11.40
2016,06,02,05,17,11.40
2016,06,02,05,18,11.40
2016,06,02,05,19,11.40
2016,06,02,05,20,11.40
2016,06,02,05,21,11.40
2016,06,02,05,22,11.40
2016,06,02,05,23,11.40
2016,06,02,05,24,11.40
2016,06,02,05,25,11.40
2016,06,02,05,26,11.40
2016,06,02,05,27,11.40
2016,06,02,05,28,11.40
2016,06,02,05,29,11.40
2016,06,02,05,30,11.40
2016,06,02,05,31,11.40
2016,06,02,05,32,11.40
2016,06,02,05,33,11.40
2016,06,02,05,34,11.40
2016,06,02,05,35,11.30
2016,06,02,05,36,11.30
2016,06,02,05,37,11.30
2016,06,02,05,38,11.30
2016,06,02,05,39,11.30
2016,06,02,05,40,11.30
2016,06,02,05,41,11.30
2016,06,02,05,42,11.20
2016,06,02,05,43,11.20
2016,06,02,05,44,11.20
2016,06,02,05,45,11.20
2016,06,02,05,46,11.20
2016,06,02,05,47,11.20
2016,06,02,05,48,11.20
2016,06,02,05,49,11.20
2016,06,02,05,50,11.20
2016,06,02,05,51,11.20
2016,06,02,05,52,11.20
2016,06,02,05,53,11.20
2016,06,02,05,54,11.20
2016,06,02,05,55,11.20
2016,06,02,05,56,11.20
2016,06,02,05,57,11.20
2016,06,02,05,58,11.20
2016,06,02,05,59,11.20
2016,06,02,06,00,11.20
2016,06,02,06,01,11.20
2016,06,02,06,02,11.20
2016,06,02,06,03,11.20
2016,06,02,06,04,11.20
2016,06,02,06,05,11.20
2016,06,02,06,06,11.20
2016,06,02,06,07,11.20
2016,06,02,06,08,11.20
2016,06,02,06,09,11.20
2016,06,02,06,10,11.20
2016,06,02,06,11,11.20
2016,06,02,06,12,11.20
2016,06,02,06,13,11.20
2016,06,02,06,14,11.20
2016,06,02,06,15,11.20
2016,06,02,06,16,11.20
2016,06,02,06,17,11.20
2016,06,02,06,18,11.20
2016,06,02,06,19,11.20
2016,06,02,06,20,11.20
2016,06,02,06,21,11.20
2016,06,02,06,22,11.20
2016,06,02,06,23,11.20
2016,06,02,06,24,11.20
2016,06,02,06,25,11.20
2016,06,02,06,26,11.20
2016,06,02,06,27,11.20
2016,06,02,06,28,11.20
2016,06,02,06,29,11.20
2016,06,02,06,30,11.20
2016,06,02,06,31,11.20
2016,06,02,06,32,11.20
2016,06,02,06,33,11.20
2016,06,02,06,34,11.20
2016,06,02,06,35,11.20
2016,06,02,06,36,11.20
2016,06,02,06,37,11.20
2016,06,02,06,38,11.20
2016,06,02,06,39,11.20
2016,06,02,06,40,11.20
2016,06,02,06,41,11.20
2016,06,02,06,42,11.20
2016,06,02,06,43,11.20
2016,06,02,06,44,11.20
2016,06,02,06,45,11.20
2016,06,02,06,46,11.20
2016,06,02,06,47,11.20
2016,06,02,06,48,11.20
2016,06,02,06,49,11.20
2016,06,02,06,50,11.20
2016,06,02,06,51,11.20
2016,06,02,06,52,11.20
2016,06,02,06,53,11.20
2016,06,02,06,54,11.20
2016,06,02,06,55,11.20
2016,06,02,06,56,11.20
2016,06,02,06,57,11.30
2016,06,02,06,58,11.30
2016,06,02,06,59,11.30
2016,06,02,07,00,11.30
2016,06,02,07,01,11.30
2016,06,02,07,02,11.30
2016,06,02,07,03,11.30
2016,06,02,07,04,11.30
2016,06,02,07,05,11.30
2016,06,02,07,06,11.30
2016,06,02,07,07,11.30
2016,06,02,07,08,11.30
2016,06,02,07,09,11.30
2016,06,02,07,10,11.30
2016,06,02,07,11,11.30
2016,06,02,07,12,11.30
2016,06,02,07,13,11.30
2016,06,02,07,14,11.30
2016,06,02,07,15,11.40
2016,06,02,07,16,11.40
2016,06,02,07,17,11.40
2016,06,02,07,18,11.40
2016,06,02,07,19,11.40
2016,06,02,07,20,11.40
2016,06,02,07,21,11.40
2016,06,02,07,22,11.40
2016,06,02,07,23,11.40
2016,06,02,07,24,11.40
2016,06,02,07,25,11.40
2016,06,02,07,26,11.40
2016,06,02,07,27,11.40
2016,06,02,07,28,11.50
2016,06,02,07,29,11.50
2016,06,02,07,30,11.50
2016,06,02,07,31,11.50
2016,06,02,07,32,11.50
2016,06,02,07,33,11.50
2016,06,02,07,34,11.50
2016,06,02,07,35,11.60
2016,06,02,07,36,11.60
2016,06,02,07,37,11.60
2016,06,02,07,38,11.60
2016,06,02,07,39,11.60
2016,06,02,07,40,11.70
2016,06,02,07,41,11.70
2016,06,02,07,42,11.70
2016,06,02,07,43,11.70
2016,06,02,07,44,11.70
2016,06,02,07,45,11.70
2016,06,02,07,46,11.80
2016,06,02,07,47,11.80
2016,06,02,07,48,11.80
2016,06,02,07,49,11.80
2016,06,02,07,50,11.80
2016,06,02,07,51,11.80
2016,06,02,07,52,11.80
2016,06,02,07,53,11.80
2016,06,02,07,54,11.80
2016,06,02,07,55,11.80
2016,06,02,07,56,11.90
2016,06,02,07,57,11.90
2016,06,02,07,58,11.90
2016,06,02,07,59,11.90
2016,06,02,08,00,11.90
2016,06,02,08,01,11.90
2016,06,02,08,02,11.90
2016,06,02,08,03,11.90
2016,06,02,08,04,11.90
2016,06,02,08,05,11.90
2016,06,02,08,06,11.90
2016,06,02,08,07,11.90
2016,06,02,08,08,11.90
2016,06,02,08,09,11.90
2016,06,02,08,10,11.90
2016,06,02,08,11,11.90
2016,06,02,08,12,11.90
2016,06,02,08,13,11.90
2016,06,02,08,14,11.90
2016,06,02,08,15,12.00
2016,06,02,08,16,12.00
2016,06,02,08,17,12.00
2016,06,02,08,18,12.00
2016,06,02,08,19,12.00
2016,06,02,08,20,12.00
2016,06,02,08,21,12.00
2016,06,02,08,22,11.90
2016,06,02,08,23,11.90
2016,06,02,08,24,11.80
2016,06,02,08,25,11.70
2016,06,02,08,26,11.70
2016,06,02,08,27,11.60
2016,06,02,08,28,11.60
2016,06,02,08,29,11.60
2016,06,02,08,30,11.60
2016,06,02,08,31,11.50
2016,06,02,08,32,11.50
2016,06,02,08,33,11.50
2016,06,02,08,34,11.50
2016,06,02,08,35,11.50
2016,06,02,08,36,11.50
2016,06,02,08,37,11.50
2016,06,02,08,38,11.50
2016,06,02,08,39,11.60
2016,06,02,08,40,11.60
2016,06,02,08,41,11.60
2016,06,02,08,42,11.60
2016,06,02,08,43,11.70
2016,06,02,08,44,11.70
2016,06,02,08,45,11.70
2016,06,02,08,46,11.70
2016,06,02,08,47,11.80
2016,06,02,08,48,11.80
2016,06,02,08,49,11.80
2016,06,02,08,50,11.80
2016,06,02,08,51,11.80
2016,06,02,08,52,11.80
2016,06,02,08,53,11.80
2016,06,02,08,54,11.80
2016,06,02,08,55,11.90
2016,06,02,08,56,11.90
2016,06,02,08,57,11.90
2016,06,02,08,58,11.90
2016,06,02,08,59,12.00
2016,06,02,09,00,12.00
2016,06,02,09,01,12.00
2016,06,02,09,02,12.00
2016,06,02,09,03,12.00
2016,06,02,09,04,12.00
2016,06,02,09,05,12.00
2016,06,02,09,06,11.90
2016,06,02,09,07,11.90
2016,06,02,09,08,11.90
2016,06,02,09,09,11.90
2016,06,02,09,10,11.90
2016,06,02,09,11,12.00
2016,06,02,09,12,12.00
2016,06,02,09,13,12.10
2016,06,02,09,14,12.10
2016,06,02,09,15,12.10
2016,06,02,09,16,12.10
2016,06,02,09,17,12.10
2016,06,02,09,18,12.10
2016,06,02,09,19,12.10
2016,06,02,09,20,12.10
2016,06,02,09,21,12.10
2016,06,02,09,22,12.10
2016,06,02,09,23,12.20
2016,06,02,09,24,12.20
2016,06,02,09,25,12.20
2016,06,02,09,26,12.20
2016,06,02,09,27,12.30
2016,06,02,09,28,12.30
2016,06,02,09,29,12.30
2016,06,02,09,30,12.30
2016,06,02,09,31,12.30
2016,06,02,09,32,12.30
2016,06,02,09,33,12.30
2016,06,02,09,34,12.20
2016,06,02,09,35,12.20
2016,06,02,09,36,12.20
2016,06,02,09,37,12.20
2016,06,02,09,38,12.20
2016,06,02,09,39,12.20
2016,06,02,09,40,12.20
2016,06,02,09,41,12.20
2016,06,02,09,42,12.30
2016,06,02,09,43,12.30
2016,06,02,09,44,12.30
2016,06,02,09,45,12.30
2016,06,02,09,46,12.30
2016,06,02,09,47,12.30
2016,06,02,09,48,12.30
2016,06,02,09,49,12.30
2016,06,02,09,50,12.30
2016,06,02,09,51,12.30
2016,06,02,09,52,12.30
2016,06,02,09,53,12.30
2016,06,02,09,54,12.30
2016,06,02,09,55,12.20
2016,06,02,09,56,12.20
2016,06,02,09,57,12.20
2016,06,02,09,58,12.10
2016,06,02,09,59,12.10
2016,06,02,10,00,12.10
2016,06,02,10,01,12.10
2016,06,02,10,02,12.10
2016,06,02,10,03,12.10
2016,06,02,10,04,12.10
2016,06,02,10,05,12.10
2016,06,02,10,06,12.10
2016,06,02,10,07,12.10
2016,06,02,10,08,12.00
2016,06,02,10,09,12.00
2016,06,02,10,10,12.00
2016,06,02,10,11,12.10
2016,06,02,10,12,12.10
2016,06,02,10,13,12.10
2016,06,02,10,14,12.10
2016,06,02,10,15,12.20
2016,06,02,10,16,12.20
2016,06,02,10,17,12.20
2016,06,02,10,18,12.20
2016,06,02,10,19,12.10
2016,06,02,10,20,12.20
2016,06,02,10,21,12.20
2016,06,02,10,22,12.20
2016,06,02,10,23,12.30
2016,06,02,10,24,12.30
2016,06,02,10,25,12.30
2016,06,02,10,26,12.30
2016,06,02,10,27,12.30
2016,06,02,10,28,12.30
2016,06,02,10,29,12.40
2016,06,02,10,30,12.50
2016,06,02,10,31,12.50
2016,06,02,10,32,12.50
2016,06,02,10,33,12.50
2016,06,02,10,34,12.60
2016,06,02,10,35,12.60
2016,06,02,10,36,12.60
2016,06,02,10,37,12.60
2016,06,02,10,38,12.60
2016,06,02,10,39,12.70
2016,06,02,10,40,12.70
2016,06,02,10,41,12.70
2016,06,02,10,42,12.70
2016,06,02,10,43,12.70
2016,06,02,10,44,12.80
2016,06,02,10,45,12.80
2016,06,02,10,46,12.80
2016,06,02,10,47,12.70
2016,06,02,10,48,12.70
2016,06,02,10,49,12.70
2016,06,02,10,50,12.70
2016,06,02,10,51,12.70
2016,06,02,10,52,12.70
2016,06,02,10,53,12.80
2016,06,02,10,54,12.80
2016,06,02,10,55,12.80
2016,06,02,10,56,12.80
2016,06,02,10,57,12.80
2016,06,02,10,58,12.80
2016,06,02,10,59,12.80
2016,06,02,11,00,12.90
2016,06,02,11,01,12.90
2016,06,02,11,02,13.00
2016,06,02,11,03,13.00
2016,06,02,11,04,13.10
2016,06,02,11,05,13.10
2016,06,02,11,06,13.10
2016,06,02,11,07,13.10
2016,06,02,11,08,13.10
2016,06,02,11,09,13.10
2016,06,02,11,10,13.20
2016,06,02,11,11,13.10
2016,06,02,11,12,13.10
2016,06,02,11,13,13.10
2016,06,02,11,14,13.10
2016,06,02,11,15,13.10
2016,06,02,11,16,13.10
2016,06,02,11,17,13.10
2016,06,02,11,18,13.10
2016,06,02,11,19,13.10
2016,06,02,11,20,13.20
2016,06,02,11,21,13.30
2016,06,02,11,22,13.30
2016,06,02,11,23,13.40
2016,06,02,11,24,13.40
2016,06,02,11,25,13.50
2016,06,02,11,26,13.60
2016,06,02,11,27,13.60
2016,06,02,11,28,13.70
2016,06,02,11,29,13.80
2016,06,02,11,30,13.80
2016,06,02,11,31,13.80
2016,06,02,11,32,13.80
2016,06,02,11,33,13.80
2016,06,02,11,34,13.90
2016,06,02,11,35,13.90
2016,06,02,11,36,13.80
2016,06,02,11,37,13.80
2016,06,02,11,38,13.80
2016,06,02,11,39,13.70
2016,06,02,11,40,13.70
2016,06,02,11,41,13.70
2016,06,02,11,42,13.70
2016,06,02,11,43,13.70
2016,06,02,11,44,13.80
2016,06,02,11,45,13.90
2016,06,02,11,46,13.90
2016,06,02,11,47,13.90
2016,06,02,11,48,14.00
2016,06,02,11,49,14.00
2016,06,02,11,50,14.00
2016,06,02,11,51,14.10
2016,06,02,11,52,14.20
2016,06,02,11,53,14.30
2016,06,02,11,54,14.30
2016,06,02,11,55,14.40
2016,06,02,11,56,14.50
2016,06,02,11,57,14.50
2016,06,02,11,58,14.50
2016,06,02,11,59,14.50
2016,06,02,12,00,14.40
2016,06,02,12,01,14.50
2016,06,02,12,02,14.50
2016,06,02,12,03,14.60
2016,06,02,12,04,14.60
2016,06,02,12,05,14.60
2016,06,02,12,06,14.60
2016,06,02,12,07,14.70
2016,06,02,12,08,14.70
2016,06,02,12,09,14.70
2016,06,02,12,10,14.70
2016,06,02,12,11,14.80
2016,06,02,12,12,14.80
2016,06,02,12,13,14.90
2016,06,02,12,14,15.00
2016,06,02,12,15,15.00
2016,06,02,12,16,15.00
2016,06,02,12,17,15.00
2016,06,02,12,18,15.00
2016,06,02,12,19,15.00
2016,06,02,12,20,15.00
2016,06,02,12,21,15.00
2016,06,02,12,22,15.00
2016,06,02,12,23,15.00
2016,06,02,12,24,15.00
2016,06,02,12,25,15.00
2016,06,02,12,26,15.10
2016,06,02,15,59,16.90
2016,06,02,16,00,16.90
2016,06,02,16,01,16.80
2016,06,02,16,02,16.80
2016,06,02,16,03,16.80
2016,06,02,16,04,16.80
2016,06,02,16,05,16.70
2016,06,02,16,06,16.80
2016,06,02,16,07,16.80
2016,06,02,16,08,16.80
2016,06,02,16,09,16.80
2016,06,02,16,10,16.80
2016,06,02,16,11,16.80
2016,06,02,16,12,16.70
2016,06,02,16,13,16.70
2016,06,02,16,14,16.70
2016,06,02,16,15,16.70
2016,06,02,16,16,16.70
2016,06,02,16,17,16.70
2016,06,02,16,18,16.70
2016,06,02,16,19,16.70
2016,06,02,16,20,16.70
2016,06,02,16,21,16.70
2016,06,02,16,22,16.70
2016,06,02,16,23,16.70
2016,06,02,16,24,16.70
2016,06,02,16,25,16.70
2016,06,02,16,26,16.70
2016,06,02,16,27,16.70
2016,06,02,16,28,16.80
2016,06,02,16,29,16.80
2016,06,02,16,30,16.80
2016,06,02,16,31,16.80
2016,06,02,16,32,16.80
2016,06,02,16,33,16.80
2016,06,02,16,34,16.90
2016,06,02,16,35,16.90
2016,06,02,16,36,17.00
2016,06,02,16,37,17.10
2016,06,02,16,38,17.10
2016,06,02,16,39,17.20
2016,06,02,16,40,17.30
2016,06,02,16,41,17.30
2016,06,02,16,42,17.30
2016,06,02,16,43,17.30
2016,06,02,16,44,17.30
2016,06,02,16,45,17.30
2016,06,02,16,46,17.30
2016,06,02,16,47,17.30
2016,06,02,16,48,17.30
2016,06,02,16,49,17.30
2016,06,02,16,50,17.30
2016,06,02,16,51,17.20
2016,06,02,16,52,17.20
2016,06,02,16,53,17.20
2016,06,02,16,54,17.10
2016,06,02,16,55,17.10
2016,06,02,16,56,17.00
2016,06,02,16,57,16.90
2016,06,02,16,58,16.80
2016,06,02,16,59,16.70
2016,06,02,17,00,16.60
2016,06,02,17,01,16.60
2016,06,02,17,02,16.60
2016,06,02,17,03,16.50
2016,06,02,17,04,16.50
2016,06,02,17,05,16.40
2016,06,02,17,06,16.30
2016,06,02,17,07,16.30
2016,06,02,17,08,16.20
2016,06,02,17,09,16.20
2016,06,02,17,10,16.20
2016,06,02,17,11,16.20
2016,06,02,17,12,16.20
2016,06,02,17,13,16.20
2016,06,02,17,14,16.20
2016,06,02,17,15,16.20
2016,06,02,17,16,16.20
2016,06,02,17,17,16.20
2016,06,02,17,18,16.20
2016,06,02,17,19,16.20
2016,06,02,17,20,16.10
2016,06,02,17,21,16.10
2016,06,02,17,22,16.10
2016,06,02,17,23,16.10
2016,06,02,17,24,16.00
2016,06,02,17,25,16.00
2016,06,02,17,26,16.00
2016,06,02,17,27,15.90
2016,06,02,17,28,15.90
2016,06,02,17,29,15.80
2016,06,02,17,30,15.80
2016,06,02,17,31,15.80
2016,06,02,17,32,15.80
2016,06,02,17,33,15.70
2016,06,02,17,34,15.70
2016,06,02,17,35,15.70
2016,06,02,17,36,15.70
2016,06,02,17,37,15.60
2016,06,02,17,38,15.60
2016,06,02,17,39,15.60
2016,06,02,17,40,15.60
2016,06,02,17,41,15.60
2016,06,02,17,42,15.60
2016,06,02,17,43,15.60
2016,06,02,17,44,15.60
2016,06,02,17,45,15.60
2016,06,02,17,46,15.60
2016,06,02,17,47,15.60
2016,06,02,17,48,15.60
2016,06,02,17,49,15.70
2016,06,02,17,50,15.70
2016,06,02,17,51,15.70
2016,06,02,17,52,15.70
2016,06,02,17,53,15.70
2016,06,02,17,54,15.70
2016,06,02,17,55,15.70
2016,06,02,17,56,15.70
2016,06,02,17,57,15.70
2016,06,02,17,58,15.60
2016,06,02,17,59,15.60
2016,06,02,18,00,15.50
2016,06,02,18,01,15.50
2016,06,02,18,02,15.50
2016,06,02,18,03,15.50
2016,06,02,18,04,15.50
2016,06,02,18,05,15.50
2016,06,02,18,06,15.50
2016,06,02,18,07,15.40
2016,06,02,18,08,15.40
2016,06,02,18,09,15.40
2016,06,02,18,10,15.30
2016,06,02,18,11,15.30
2016,06,02,18,12,15.20
2016,06,02,18,13,15.20
2016,06,02,18,14,15.20
2016,06,02,18,15,15.10
2016,06,02,18,16,15.10
2016,06,02,18,17,15.10
2016,06,02,18,18,15.10
2016,06,02,18,19,15.00
2016,06,02,18,20,15.00
2016,06,02,18,21,15.00
2016,06,02,18,22,14.90
2016,06,02,18,23,14.90
2016,06,02,18,24,14.90
2016,06,02,18,25,14.90
2016,06,02,18,26,14.90
2016,06,02,18,27,14.90
2016,06,02,18,28,14.90
2016,06,02,18,29,14.90
2016,06,02,18,30,14.90
2016,06,02,18,31,14.90
2016,06,02,18,32,14.90
2016,06,02,18,33,14.90
2016,06,02,18,34,14.90
2016,06,02,18,35,14.90
2016,06,02,18,36,14.90
2016,06,02,18,37,14.90
2016,06,02,18,38,14.90
2016,06,02,18,39,15.00
2016,06,02,18,40,15.00
2016,06,02,18,41,15.00
2016,06,02,18,42,15.00
2016,06,02,18,43,15.00
2016,06,02,18,44,14.90
2016,06,02,18,45,14.90
2016,06,02,18,46,14.90
2016,06,02,18,47,14.90
2016,06,02,18,48,14.80
2016,06,02,18,49,14.80
2016,06,02,18,50,14.80
2016,06,02,18,51,14.70
2016,06,02,18,52,14.70
2016,06,02,18,53,14.70
2016,06,02,18,54,14.70
2016,06,02,18,55,14.70
2016,06,02,18,56,14.70
2016,06,02,18,57,14.70
2016,06,02,18,58,14.70
2016,06,02,18,59,14.70
2016,06,02,19,00,14.70
2016,06,02,19,01,14.70
2016,06,02,19,02,14.70
2016,06,02,19,03,14.70
2016,06,02,19,04,14.70
2016,06,02,19,05,14.70
2016,06,02,19,06,14.70
2016,06,02,19,07,14.70
2016,06,02,19,08,14.70
2016,06,02,19,09,14.70
2016,06,02,19,10,14.70
2016,06,02,19,11,14.70
2016,06,02,19,12,14.70
2016,06,02,19,13,14.70
2016,06,02,19,14,14.70
2016,06,02,19,15,14.60
2016,06,02,19,16,14.60
2016,06,02,19,17,14.60
2016,06,02,19,18,14.60
2016,06,02,19,19,14.60
2016,06,02,19,20,14.60
2016,06,02,19,21,14.60
2016,06,02,19,22,14.60
2016,06,02,19,23,14.60
2016,06,02,19,24,14.60
2016,06,02,19,25,14.60
2016,06,02,19,26,14.60
2016,06,02,19,27,14.50
2016,06,02,19,28,14.50
2016,06,02,19,29,14.50
2016,06,02,19,30,14.50
2016,06,02,19,31,14.50
2016,06,02,19,32,14.50
2016,06,02,19,33,14.50
2016,06,02,19,34,14.50
2016,06,02,19,35,14.40
2016,06,02,19,36,14.40
2016,06,02,19,37,14.40
2016,06,02,19,38,14.30
2016,06,02,19,39,14.30
2016,06,02,19,40,14.30
2016,06,02,19,41,14.30
2016,06,02,19,42,14.30
2016,06,02,19,43,14.30
2016,06,02,19,44,14.30
2016,06,02,19,45,14.30
2016,06,02,19,46,14.30
2016,06,02,19,47,14.30
2016,06,02,19,48,14.30
2016,06,02,19,49,14.30
2016,06,02,19,50,14.30
2016,06,02,19,51,14.30
2016,06,02,19,52,14.30
2016,06,02,19,53,14.30
2016,06,02,19,54,14.20
2016,06,02,19,55,14.20
2016,06,02,19,56,14.20
2016,06,02,19,57,14.30
2016,06,02,19,58,14.30
2016,06,02,19,59,14.30
2016,06,02,20,00,14.30
2016,06,02,20,01,14.30
2016,06,02,20,02,14.30
2016,06,02,20,03,14.30
2016,06,02,20,04,14.30
2016,06,02,20,05,14.20
2016,06,02,20,06,14.20
2016,06,02,20,07,14.20
2016,06,02,20,08,14.20
2016,06,02,20,09,14.20
2016,06,02,20,10,14.20
2016,06,02,20,11,14.20
2016,06,02,20,12,14.20
2016,06,02,20,13,14.20
2016,06,02,20,14,14.20
2016,06,02,20,15,14.10
2016,06,02,20,16,14.10
2016,06,02,20,17,14.10
2016,06,02,20,18,14.10
2016,06,02,20,19,14.10
2016,06,02,20,20,14.00
2016,06,02,20,21,14.00
2016,06,02,20,22,14.00
2016,06,02,20,23,14.00
2016,06,02,20,24,14.00
2016,06,02,20,25,14.00
2016,06,02,20,26,14.00
2016,06,02,20,27,13.90
2016,06,02,20,28,13.90
2016,06,02,20,29,13.90
2016,06,02,20,30,13.90
2016,06,02,20,31,13.90
2016,06,02,20,32,13.90
2016,06,02,20,33,13.90
2016,06,02,20,34,13.90
2016,06,02,20,35,13.90
2016,06,02,20,36,13.90
2016,06,02,20,37,13.80
2016,06,02,20,38,13.80
2016,06,02,20,39,13.80
2016,06,02,20,40,13.80
2016,06,02,20,41,13.80
2016,06,02,20,42,13.80
2016,06,02,20,43,13.80
2016,06,02,20,44,13.80
2016,06,02,20,45,13.80
2016,06,02,20,46,13.70
2016,06,02,20,47,13.70
2016,06,02,20,48,13.70
2016,06,02,20,49,13.70
2016,06,02,20,50,13.70
2016,06,02,20,51,13.70
2016,06,02,20,52,13.70
2016,06,02,20,53,13.70
2016,06,02,20,54,13.60
2016,06,02,20,55,13.60
2016,06,02,20,56,13.60
2016,06,02,20,57,13.60
2016,06,02,20,58,13.60
2016,06,02,20,59,13.60
2016,06,02,21,00,13.60
2016,06,02,21,01,13.50
2016,06,02,21,02,13.50
2016,06,02,21,03,13.50
2016,06,02,21,04,13.50
2016,06,02,21,05,13.50
2016,06,02,21,06,13.40
2016,06,02,21,07,13.40
2016,06,02,21,08,13.40
2016,06,02,21,09,13.40
2016,06,02,21,10,13.40
2016,06,02,21,11,13.40
2016,06,02,21,12,13.40
2016,06,02,21,13,13.40
2016,06,02,21,14,13.30
2016,06,02,21,15,13.30
2016,06,02,21,16,13.30
2016,06,02,21,17,13.20
2016,06,02,21,18,13.20
2016,06,02,21,19,13.20
2016,06,02,21,20,13.20
2016,06,02,21,21,13.20
2016,06,02,21,22,13.20
2016,06,02,21,23,13.10
2016,06,02,21,24,13.10
2016,06,02,21,25,13.10
2016,06,02,21,26,13.10
2016,06,02,21,27,13.10
2016,06,02,21,28,13.10
2016,06,02,21,29,13.00
2016,06,02,21,30,13.00
2016,06,02,21,31,13.00
2016,06,02,21,32,12.90
2016,06,02,21,33,12.90
2016,06,02,21,34,12.90
2016,06,02,21,35,12.90
2016,06,02,21,36,12.90
2016,06,02,21,37,12.90
2016,06,02,21,38,12.90
2016,06,02,21,39,12.90
2016,06,02,21,40,12.80
2016,06,02,21,41,12.80
2016,06,02,21,42,12.80
2016,06,02,21,43,12.80
2016,06,02,21,44,12.80
2016,06,02,21,45,12.80
2016,06,02,21,46,12.80
2016,06,02,21,47,12.80
2016,06,02,21,48,12.80
2016,06,02,21,49,12.80
2016,06,02,21,50,12.70
2016,06,02,21,51,12.70
2016,06,02,21,52,12.70
2016,06,02,21,53,12.70
2016,06,02,21,54,12.70
2016,06,02,21,55,12.70
2016,06,02,21,56,12.70
2016,06,02,21,57,12.70
2016,06,02,21,58,12.70
2016,06,02,21,59,12.70
2016,06,02,22,00,12.70
2016,06,02,22,01,12.70
2016,06,02,22,02,12.70
2016,06,02,22,03,12.70
2016,06,02,22,04,12.70
2016,06,02,22,05,12.70
2016,06,02,22,06,12.70
2016,06,02,22,07,12.70
2016,06,02,22,08,12.60
2016,06,02,22,09,12.60
2016,06,02,22,10,12.60
2016,06,02,22,11,12.60
2016,06,02,22,12,12.60
2016,06,02,22,13,12.60
2016,06,02,22,14,12.60
2016,06,02,22,15,12.60
2016,06,02,22,16,12.60
2016,06,02,22,17,12.60
2016,06,02,22,18,12.60
2016,06,02,22,19,12.60
2016,06,02,22,20,12.60
2016,06,02,22,21,12.60
2016,06,02,22,22,12.60
2016,06,02,22,23,12.60
2016,06,02,22,24,12.50
2016,06,02,22,25,12.50
2016,06,02,22,26,12.50
2016,06,02,22,27,12.50
2016,06,02,22,28,12.50
2016,06,02,22,29,12.40
2016,06,02,22,30,12.40
2016,06,02,22,31,12.40
2016,06,02,22,32,12.40
2016,06,02,22,33,12.40
2016,06,02,22,34,12.40
2016,06,02,22,35,12.40
2016,06,02,22,36,12.40
2016,06,02,22,37,12.40
2016,06,02,22,38,12.40
2016,06,02,22,39,12.40
2016,06,02,22,40,12.40
2016,06,02,22,41,12.40
2016,06,02,22,42,12.40
2016,06,02,22,43,12.40
2016,06,02,22,44,12.40
2016,06,02,22,45,12.40
2016,06,02,22,46,12.40
2016,06,02,22,47,12.40
2016,06,02,22,48,12.40
2016,06,02,22,49,12.40
2016,06,02,22,50,12.40
2016,06,02,22,51,12.40
2016,06,02,22,52,12.40
2016,06,02,22,53,12.40
2016,06,02,22,54,12.40
2016,06,02,22,55,12.40
2016,06,02,22,56,12.40
2016,06,02,22,57,12.30
2016,06,02,22,58,12.30
2016,06,02,22,59,12.30
2016,06,02,23,00,12.30
2016,06,02,23,01,12.30
2016,06,02,23,02,12.30
2016,06,02,23,03,12.30
2016,06,02,23,04,12.30
2016,06,02,23,05,12.20
2016,06,02,23,06,12.20
2016,06,02,23,07,12.20
2016,06,02,23,08,12.20
2016,06,02,23,09,12.20
2016,06,02,23,10,12.20
2016,06,02,23,11,12.20
2016,06,02,23,12,12.10
2016,06,02,23,13,12.10
2016,06,02,23,14,12.10
2016,06,02,23,15,12.10
2016,06,02,23,16,12.10
2016,06,02,23,17,12.10
2016,06,02,23,18,12.10
2016,06,02,23,19,12.10
2016,06,02,23,20,12.10
2016,06,02,23,21,12.10
2016,06,02,23,22,12.00
2016,06,02,23,23,12.00
2016,06,02,23,24,12.00